Location: Gleizolles
(44.4833°N, 6.7667°E)
Time: 20:51:27
(UTC+00:00)

Explorer 7 - Pass Details

Date: 20 June 2024
Orbit: 465 x 619 km, 50.3° (Epoch: 19 July)

Event Time Altitude Azimuth Distance (km) Brightness Sun altitude
Rises 17:08:24 0° 294° (WNW) 2,513 11.7 20.7°
Reaches altitude 10° 17:10:39 10° 286° (WNW) 1,623 11.6 20.3°
Maximum altitude 17:14:04 38° 217° (SW) 716 7.9 19.7°
Drops below altitude 10° 17:17:28 10° 148° (SSE) 1,613 8.9 19.1°
Sets 17:19:42 0° 140° (SE) 2,494 9.7 18.8°
